FW5399 Weather Reports


Display with metric or nautical units.
time (UTC)temp
F
wind
direction
speed
MPH
gust
MPH
rain 1hr
in
rain 24hr
in
rain mn
in
humidity
%
barometer
mb
20260905104225 52 317 0.0 4.0 0.00 0.01 0.01 78 1017.2
20260905103721 52 3 0.0 3.0 0.00 0.01 0.01 79 1017.4
20260905103222 52 308 0.0 3.0 0.00 0.01 0.01 79 1017.4
20260905103108 52 302 0.0 3.0 0.00 0.01 0.01 78 1017.4
20260905102218 53 326 0.0 4.0 0.00 0.01 0.01 78 1017.4
20260905101717 53 279 0.0 4.0 0.00 0.01 0.01 78 1017.6
20260905101217 53 256 1.0 3.0 0.00 0.01 0.01 78 1017.7
20260905100717 53 317 1.0 4.0 0.00 0.01 0.01 78 1017.6
20260905100214 53 351 1.0 7.0 0.00 0.01 0.01 79 1017.4
20260905095728 53 326 1.0 10.0 0.00 0.01 0.01 79 1017.4
20260905095214 52 345 1.0 10.0 0.00 0.01 0.01 80 1017.6
20260905095132 52 307 1.0 9.0 0.00 0.01 0.01 81 1017.6
20260905094219 51 343 1.0 9.0 0.00 0.01 0.01 86 1017.5
20260905093719 47 0 0.0 3.0 0.00 0.01 0.01 97 1017.6
20260905093218 45 329 0.0 1.0 0.00 0.01 0.01 97 1017.7
20260905092719 44 249 0.0 0.0 0.00 0.01 0.01 96 1017.6
20260905092214 44 249 0.0 0.0 0.00 0.01 0.01 96 1017.7
20260905091717 44 249 0.0 1.0 0.00 0.01 0.01 96 1017.8
20260905091215 44 249 0.0 1.0 0.00 0.01 0.01 96 1017.9
20260905090716 43 249 0.0 3.0 0.00 0.01 0.01 96 1017.7
20260905090629 43 248 0.0 3.0 0.00 0.01 0.01 95 1017.5
20260905085921 43 292 0.0 0.0 0.00 0.01 0.01 95 1017.8
20260905085821 43 261 0.0 1.0 0.00 0.01 0.01 95 1017.6
20260905084212 43 291 0.0 0.0 0.00 0.01 0.01 95 1017.5
20260905083710 43 291 0.0 0.0 0.00 0.01 0.01 94 1017.4
20260905083212 43 291 0.0 0.0 0.00 0.01 0.01 94 1017.4
20260905083124 43 291 0.0 0.0 0.00 0.01 0.01 93 1017.1
20260905082622 44 291 0.0 0.0 0.00 0.01 0.01 94 1017.2
20260905081903 44 292 0.0 0.0 0.00 0.01 0.01 94 1017.1
20260905080712 44 292 0.0 0.0 0.00 0.01 0.01 93 1016.9
20260905080213 44 291 0.0 0.0 0.00 0.01 0.01 92 1017.0
20260905075713 45 291 0.0 0.0 0.00 0.01 0.01 92 1017.1
20260905075207 45 292 0.0 0.0 0.00 0.01 0.01 92 1017.1
20260905074702 45 291 0.0 0.0 0.00 0.01 0.01 91 1017.0
20260905074159 46 292 0.0 0.0 0.00 0.01 0.01 91 1017.0
20260905073700 46 292 0.0 0.0 0.00 0.01 0.01 91 1016.9
20260905073157 46 292 0.0 0.0 0.00 0.01 0.01 91 1016.9
20260905072700 47 291 0.0 0.0 0.00 0.01 0.01 91 1016.7
20260905072204 47 292 0.0 0.0 0.00 0.01 0.01 91 1016.5
20260905071658 47 292 0.0 0.0 0.00 0.01 0.01 92 1016.4
20260905071155 47 291 0.0 0.0 0.00 0.01 0.01 91 1016.4
20260905070654 47 292 0.0 0.0 0.00 0.01 0.01 91 1016.3
20260905070154 47 292 0.0 2.0 0.00 0.01 0.01 91 1016.3
20260905065651 47 286 0.0 2.0 0.00 0.01 0.01 90 1016.4
20260905065150 47 286 0.0 1.0 0.00 0.01 0.01 89 1016.3
20260905065043 48 296 0.0 0.0 0.00 0.01 0.01 88 1016.5
20260905063650 49 301 0.0 0.0 0.00 0.01 0.01 87 1016.4
20260905063155 50 301 0.0 1.0 0.00 0.01 0.01 87 1016.3
20260905062646 50 301 0.0 1.0 0.00 0.01 0.01 86 1016.0
20260905062146 51 301 0.0 1.0 0.00 0.01 0.01 85 1016.2
20260905061653 51 301 0.0 1.0 0.00 0.01 0.01 84 1016.2
20260905061152 52 303 0.0 1.0 0.00 0.01 0.01 82 1016.1
20260905060700 53 303 0.0 1.0 0.00 0.01 0.01 80 1016.0
20260905060141 54 303 0.0 0.0 0.00 0.01 0.01 78 1015.9
20260905055631 55 303 0.0 0.0 0.00 0.01 0.01 76 1015.8
20260905055521 56 303 0.0 0.0 0.00 0.01 0.01 74 1015.7
20260905054618 57 303 0.0 0.0 0.00 0.01 0.01 73 1015.7
20260905054112 58 303 0.0 0.0 0.00 0.01 0.01 71 1015.8
20260905053605 58 303 0.0 1.0 0.00 0.01 0.01 70 1015.9
20260905053101 59 303 0.0 1.0 0.00 0.01 0.01 68 1015.8
20260905052951 60 352 0.0 2.0 0.00 0.01 0.01 67 1015.9
20260905052048 60 291 0.0 2.0 0.00 0.01 0.01 66 1015.7
20260905051543 60 9 0.0 4.0 0.00 0.01 0.01 65 1015.8
20260905051039 61 351 0.0 4.0 0.00 0.01 0.01 65 1015.8
20260905050921 61 341 0.0 2.0 0.00 0.02 0.01 62 1015.8
20260905050021 62 310 0.0 2.0 0.00 0.02 0.01 63 1015.8
20260905045513 62 297 0.0 3.0 0.00 0.02 0.01 61 1015.8
20260905045014 63 272 1.0 6.0 0.00 0.02 0.01 63 1015.9
20260905044514 63 222 1.0 6.0 0.00 0.02 0.01 62 1015.8
20260905044414 64 241 1.0 6.0 0.00 0.02 0.01 61 1015.7
20260905043519 65 322 1.0 6.0 0.00 0.02 0.01 60 1015.7
20260905043019 65 3 0.0 3.0 0.00 0.02 0.01 60 1015.8
20260905042517 65 291 1.0 5.0 0.00 0.02 0.01 60 1015.6
20260905042010 65 274 1.0 5.0 0.00 0.02 0.01 59 1015.7
20260905041510 66 246 1.0 7.0 0.00 0.02 0.01 58 1015.8
20260905041011 67 287 1.0 7.0 0.00 0.02 0.01 57 1015.8
20260905040505 67 261 1.0 7.0 0.00 0.02 0.01 56 1015.8
20260905040007 68 289 1.0 7.0 0.00 0.02 0.01 55 1015.9
20260905035504 68 281 0.0 4.0 0.00 0.02 0.01 57 1015.7
20260905035004 68 298 0.0 4.0 0.00 0.02 0.01 54 1015.7
20260905034504 67 255 1.0 4.0 0.00 0.02 0.01 55 1015.6
20260905034401 68 37 1.0 7.0 0.00 0.02 0.01 53 1015.8
20260905033504 68 300 1.0 7.0 0.00 0.02 0.01 54 1015.8
20260905033006 68 321 1.0 5.0 0.00 0.03 0.01 55 1015.9
20260905032501 67 331 1.0 9.0 0.00 0.04 0.01 56 1015.9
20260905032351 67 355 1.0 9.0 0.00 0.05 0.01 55 1015.9
20260905031448 67 343 1.0 5.0 0.00 0.05 0.01 55 1016.0
20260905030942 68 316 1.0 4.0 0.00 0.06 0.01 56 1016.1
20260905030441 67 318 2.0 13.0 0.00 0.06 0.01 56 1015.8
20260905025939 68 15 2.0 13.0 0.00 0.06 0.01 55 1015.8
20260905025439 68 98 1.0 12.0 0.00 0.06 0.01 54 1015.9
20260905024941 68 293 1.0 8.0 0.00 0.06 0.01 54 1015.8
20260905024443 68 326 1.0 7.0 0.00 0.06 0.01 54 1015.9
20260905023941 68 271 2.0 8.0 0.00 0.06 0.01 53 1015.9
20260905023439 68 215 1.0 8.0 0.00 0.06 0.01 55 1015.9
20260905022941 68 288 1.0 4.0 0.00 0.06 0.01 56 1016.0
20260905022440 68 301 1.0 9.0 0.00 0.06 0.01 57 1016.1
20260905021941 68 23 1.0 9.0 0.00 0.06 0.01 55 1016.3
20260905021435 69 195 1.0 5.0 0.00 0.06 0.01 54 1016.3
20260905020936 68 288 1.0 8.0 0.00 0.06 0.01 55 1016.3
20260905020437 68 290 1.0 8.0 0.00 0.06 0.01 55 1016.3
20260905015937 68 7 1.0 7.0 0.00 0.06 0.01 58 1016.2
20260905015618 68 298 1.0 5.0 0.00 0.06 0.01 54 1016.4
20260905014437 68 11 1.0 7.0 0.00 0.06 0.01 55 1016.3
20260905013938 68 322 1.0 5.0 0.00 0.06 0.01 56 1016.4
20260905013433 68 281 1.0 7.0 0.00 0.06 0.01 56 1016.4
20260905012939 67 347 1.0 7.0 0.00 0.06 0.01 58 1016.4
20260905012438 67 339 1.0 6.0 0.00 0.06 0.01 56 1016.5
20260905012401 67 6 1.0 6.0 0.00 0.06 0.01 60 1016.5
20260905011434 67 338 2.0 7.0 0.00 0.06 0.01 57 1016.5
20260905010931 67 54 1.0 7.0 0.00 0.06 0.01 54 1016.7
20260905010429 68 316 1.0 7.0 0.00 0.06 0.01 57 1016.7
20260905010334 68 307 1.0 7.0 0.00 0.06 0.01 57 1016.5
20260905005614 67 314 1.0 9.0 0.00 0.06 0.01 59 1016.5
20260905004423 67 331 1.0 6.0 0.00 0.06 0.01 59 1016.8
20260905003930 67 207 1.0 6.0 0.00 0.06 0.01 58 1016.9
20260905003430 67 4 1.0 6.0 0.00 0.06 0.01 56 1016.9
20260905002927 66 339 1.0 4.0 0.00 0.06 0.01 56 1017.2
20260905002831 66 262 2.0 7.0 0.00 0.06 0.01 55 1017.3
20260905001921 66 339 2.0 8.0 0.00 0.06 0.01 57 1017.4
20260905001421 66 2 2.0 8.0 0.00 0.06 0.01 58 1017.3
20260905001339 66 347 1.0 8.0 0.00 0.06 0.01 55 1017.3
20260905000417 66 285 1.0 8.0 0.00 0.06 0.01 57 1017.4
20260904235911 65 353 2.0 8.0 0.00 0.06 0.01 61 1017.4
20260904235811 65 283 2.0 7.0 0.00 0.06 0.01 59 1017.6
20260904235344 65 163 2.0 9.0 0.00 0.06 0.01 61 1017.6
20260904234352 65 310 2.0 9.0 0.00 0.06 0.01 62 1017.7
20260904233846 64 36 2.0 5.0 0.00 0.06 0.01 57 1017.7
20260904233341 64 281 2.0 9.0 0.00 0.06 0.01 58 1017.7
20260904232834 64 307 2.0 9.0 0.00 0.06 0.01 60 1017.6
20260904232734 64 22 1.0 7.0 0.00 0.06 0.01 58 1017.7
20260904231822 64 31 1.0 6.0 0.00 0.06 0.01 62 1017.6
20260904231316 64 333 1.0 6.0 0.00 0.06 0.01 61 1017.7
20260904230811 64 348 1.0 6.0 0.00 0.06 0.01 63 1017.6
20260904230304 64 275 1.0 6.0 0.00 0.06 0.01 61 1017.7
20260904225759 64 33 1.0 4.0 0.00 0.06 0.01 62 1017.8
20260904225252 63 14 1.0 8.0 0.00 0.06 0.01 62 1017.8
20260904224746 62 355 1.0 11.0 0.00 0.06 0.01 63 1017.9
20260904224244 62 336 2.0 11.0 0.00 0.06 0.01 64 1017.8
20260904223734 62 242 2.0 11.0 0.00 0.06 0.01 62 1017.8
20260904223229 62 265 1.0 7.0 0.00 0.06 0.01 64 1017.7
20260904222723 62 0 1.0 8.0 0.00 0.06 0.01 62 1017.7
20260904222217 62 283 1.0 8.0 0.00 0.06 0.01 63 1017.7
20260904221711 62 353 1.0 8.0 0.00 0.06 0.01 65 1017.6
20260904221205 61 279 1.0 7.0 0.00 0.06 0.01 64 1017.6
20260904220658 61 274 2.0 7.0 0.00 0.06 0.01 65 1017.6
20260904220152 61 358 1.0 6.0 0.00 0.06 0.01 66 1017.5
20260904215647 61 355 1.0 6.0 0.00 0.06 0.01 67 1017.3
20260904215554 60 40 2.0 7.0 0.00 0.06 0.01 67 1017.3
20260904214635 60 345 1.0 7.0 0.00 0.06 0.01 67 1017.4
20260904214129 60 356 1.0 6.0 0.00 0.06 0.01 67 1017.3
20260904213622 61 246 1.0 6.0 0.00 0.06 0.01 67 1017.3
20260904213123 61 3 1.0 5.0 0.00 0.06 0.01 65 1017.4
20260904212624 61 282 0.0 4.0 0.00 0.06 0.01 67 1017.5
20260904212127 60 336 1.0 7.0 0.00 0.06 0.01 67 1017.6
20260904212054 60 276 1.0 7.0 0.00 0.06 0.01 67 1017.7
20260904211123 60 22 0.0 2.0 0.00 0.06 0.01 69 1017.8
20260904211035 59 324 0.0 5.0 0.00 0.06 0.01 69 1017.8
20260904210127 58 248 1.0 5.0 0.00 0.06 0.01 70 1017.9
20260904205621 58 315 1.0 4.0 0.00 0.06 0.01 74 1017.9
20260904205123 58 189 0.0 4.0 0.00 0.06 0.01 71 1017.7
20260904204621 57 276 0.0 4.0 0.00 0.06 0.01 74 1017.8
20260904204117 56 323 1.0 6.0 0.00 0.06 0.01 74 1017.8
20260904203618 56 258 1.0 6.0 0.00 0.06 0.01 73 1017.6
20260904203116 56 304 1.0 8.0 0.00 0.06 0.01 74 1017.7
20260904202616 56 328 1.0 8.0 0.00 0.06 0.01 73 1017.7
20260904202117 55 304 0.0 5.0 0.00 0.06 0.01 76 1017.7
20260904201617 55 343 0.0 5.0 0.00 0.06 0.01 78 1017.6
20260904201118 54 279 0.0 3.0 0.00 0.06 0.01 77 1017.7
20260904200619 53 307 0.0 6.0 0.00 0.06 0.01 78 1017.7
20260904200116 53 5 0.0 6.0 0.00 0.06 0.01 80 1017.7
20260904200014 51 289 0.0 3.0 0.00 0.06 0.01 83 1017.7
20260904195528 50 306 0.0 3.0 0.00 0.06 0.01 88 1017.7
20260904194621 49 286 0.0 0.0 0.00 0.06 0.01 90 1017.7
20260904194121 48 281 0.0 0.0 0.00 0.06 0.01 90 1017.5
20260904194004 47 281 0.0 1.0 0.00 0.06 0.01 90 1017.4
20260904193121 47 281 0.0 2.0 0.00 0.06 0.01 89 1017.4
20260904192622 47 281 0.0 2.0 0.00 0.06 0.01 89 1017.4
20260904192119 47 279 0.0 0.0 0.00 0.06 0.01 89 1017.4
20260904191619 46 267 0.0 1.0 0.00 0.06 0.01 90 1017.4
20260904191122 46 262 0.0 1.0 0.00 0.06 0.01 89 1017.4
20260904191038 46 262 0.0 1.0 0.00 0.06 0.01 88 1017.1
20260904190126 46 284 0.0 0.0 0.00 0.06 0.01 88 1016.9
20260904185617 47 284 0.0 0.0 0.00 0.06 0.01 87 1016.8
20260904185112 47 284 0.0 0.0 0.00 0.06 0.01 86 1016.7
20260904184612 48 284 0.0 1.0 0.00 0.06 0.01 83 1016.7
20260904184110 48 285 0.0 2.0 0.00 0.06 0.01 83 1016.5
20260904184003 49 248 0.0 2.0 0.00 0.06 0.01 83 1016.4
20260904183105 49 289 0.0 4.0 0.00 0.06 0.01 82 1016.4
20260904182953 49 206 0.0 4.0 0.00 0.06 0.01 82 1016.4
20260904182053 50 244 0.0 1.0 0.00 0.06 0.01 80 1016.4
20260904181547 51 244 0.0 4.0 0.00 0.06 0.01 79 1016.1
20260904181041 51 275 1.0 4.0 0.00 0.06 0.01 79 1016.0
20260904180535 51 262 1.0 5.0 0.00 0.06 0.01 78 1015.9
20260904180031 51 313 2.0 6.0 0.00 0.06 0.01 78 1015.9
20260904175523 51 225 2.0 9.0 0.00 0.06 0.01 78 1015.7
20260904175017 51 256 2.0 11.0 0.00 0.06 0.01 78 1015.5
20260904174922 51 323 2.0 11.0 0.00 0.06 0.01 79 1015.4
20260904174005 51 275 2.0 11.0 0.00 0.06 0.01 79 1015.4
20260904173501 51 274 2.0 8.0 0.00 0.06 0.01 80 1015.3
20260904172957 51 343 2.0 8.0 0.00 0.06 0.01 80 1015.2
20260904172448 51 244 2.0 8.0 0.00 0.06 0.01 81 1015.3
20260904171941 50 339 1.0 7.0 0.00 0.06 0.01 82 1015.2
20260904171435 50 331 1.0 5.0 0.00 0.06 0.01 83 1015.1
20260904170932 49 249 0.0 2.0 0.00 0.06 0.01 84 1015.2
20260904170423 49 336 0.0 4.0 0.00 0.06 0.01 84 1015.1
20260904165918 50 247 0.0 5.0 0.00 0.06 0.01 84 1014.8
20260904165411 50 318 0.0 5.0 0.00 0.06 0.01 84 1014.9
20260904165305 50 322 0.0 4.0 0.00 0.06 0.01 84 1014.9
20260904164401 50 281 1.0 8.0 0.00 0.06 0.01 84 1014.9
20260904163854 50 343 1.0 8.0 0.00 0.06 0.01 84 1014.9
20260904163348 49 329 0.0 4.0 0.00 0.06 0.01 85 1014.8
20260904162842 50 281 1.0 5.0 0.00 0.06 0.01 85 1014.8
20260904162336 49 287 0.0 5.0 0.00 0.06 0.01 86 1014.7
20260904162235 49 329 0.0 5.0 0.00 0.06 0.01 87 1014.7
20260904161323 49 255 0.0 5.0 0.00 0.06 0.01 88 1014.7
20260904160817 49 334 0.0 6.0 0.00 0.06 0.01 88 1014.6
20260904160311 49 323 0.0 6.0 0.00 0.06 0.01 89 1014.6
20260904155805 49 290 0.0 4.0 0.00 0.06 0.01 90 1014.7
20260904155302 48 353 0.0 4.0 0.00 0.06 0.01 93 1014.5
20260904154753 47 319 0.0 3.0 0.00 0.06 0.01 96 1014.7
20260904154248 46 310 0.0 3.0 0.00 0.06 0.01 98 1014.7
20260904153741 45 298 0.0 3.0 0.00 0.06 0.01 99 1014.5
20260904153236 44 4 0.0 2.0 0.00 0.06 0.01 99 1014.4
20260904152732 43 276 0.0 2.0 0.00 0.06 0.01 98 1014.4
20260904152224 43 283 0.0 0.0 0.00 0.06 0.01 97 1014.3
20260904151724 43 281 0.0 0.0 0.00 0.06 0.01 97 1014.5
20260904151659 43 281 0.0 0.0 0.00 0.06 0.01 97 1014.4
20260904150721 43 281 0.0 3.0 0.00 0.06 0.01 98 1014.4
20260904150230 43 281 0.0 3.0 0.01 0.06 0.01 98 1014.3
20260904145843 43 289 0.0 1.0 0.01 0.06 0.01 97 1014.6
20260904145758 43 289 0.0 1.0 0.01 0.06 0.01 97 1014.5
20260904144220 43 290 0.0 2.0 0.01 0.06 0.01 97 1014.4
20260904143711 43 270 0.0 3.0 0.01 0.06 0.01 97 1014.5
20260904143218 43 294 0.0 3.0 0.01 0.06 0.01 97 1014.5
20260904142711 43 286 0.0 1.0 0.01 0.06 0.01 97 1014.5
20260904142213 43 277 0.0 0.0 0.01 0.06 0.01 97 1014.6
20260904141710 44 277 0.0 2.0 0.01 0.06 0.01 97 1014.5
20260904141219 44 277 0.0 2.0 0.01 0.06 0.01 96 1014.6
20260904140751 44 292 0.0 1.0 0.01 0.06 0.01 96 1014.6
20260904135206 44 291 0.0 0.0 0.00 0.06 0.00 96 1014.8
20260904134707 45 291 0.0 0.0 0.00 0.06 0.00 95 1014.7
20260904134228 45 291 0.0 0.0 0.00 0.06 0.00 95 1014.6
20260904133706 46 291 0.0 0.0 0.00 0.06 0.00 96 1014.7
20260904133605 46 294 0.0 0.0 0.00 0.06 0.00 95 1014.7
20260904132704 46 294 0.0 0.0 0.00 0.06 0.00 95 1014.5
20260904132203 46 294 0.0 0.0 0.00 0.06 0.00 94 1014.6
20260904131704 47 294 0.0 0.0 0.00 0.06 0.00 94 1014.5
20260904131217 47 294 0.0 0.0 0.00 0.06 0.00 94 1014.3
20260904130705 47 294 0.0 0.0 0.00 0.06 0.00 94 1014.4
20260904130205 48 294 0.0 0.0 0.00 0.06 0.00 93 1014.4
20260904125704 48 294 0.0 0.0 0.00 0.06 0.00 93 1014.2
20260904125206 49 294 0.0 1.0 0.00 0.06 0.00 92 1014.0
20260904124706 49 293 0.0 1.0 0.00 0.06 0.00 91 1014.0
20260904124345 49 294 0.0 2.0 0.00 0.06 0.00 90 1014.0
20260904123204 50 340 0.0 2.0 0.00 0.06 0.00 90 1013.9
20260904122701 50 326 0.0 5.0 0.00 0.06 0.00 88 1013.9
20260904122202 51 298 0.0 5.0 0.00 0.06 0.00 88 1013.9
20260904121700 50 225 0.0 2.0 0.00 0.06 0.00 89 1013.9
20260904121207 50 261 0.0 4.0 0.00 0.06 0.00 91 1013.7
20260904120657 50 262 0.0 4.0 0.00 0.06 0.00 91 1013.8
20260904120156 49 295 0.0 2.0 0.00 0.06 0.00 92 1013.8
20260904115649 49 298 0.0 1.0 0.00 0.06 0.06 92 1013.8
20260904115149 49 297 0.0 4.0 0.00 0.06 0.06 91 1013.9
20260904114646 49 298 1.0 4.0 0.00 0.06 0.06 90 1013.6
20260904114145 49 204 1.0 11.0 0.00 0.06 0.06 90 1013.5
20260904113645 49 235 1.0 11.0 0.00 0.06 0.06 92 1013.4
20260904113145 49 258 1.0 9.0 0.00 0.06 0.06 92 1013.3
20260904112647 49 174 0.0 4.0 0.00 0.06 0.06 92 1013.3
20260904112552 49 165 0.0 1.0 0.00 0.06 0.06 92 1013.4
20260904111644 49 207 0.0 3.0 0.00 0.06 0.06 92 1013.3
20260904111141 49 246 0.0 4.0 0.00 0.06 0.06 92 1013.3
20260904110644 48 284 1.0 4.0 0.00 0.06 0.06 94 1013.3
20260904110323 48 279 0.0 2.0 0.00 0.06 0.06 94 1013.3
20260904105142 48 230 0.0 1.0 0.00 0.06 0.06 94 1013.5
20260904104648 48 229 0.0 1.0 0.00 0.06 0.06 93 1013.4